EWG6ML EDDK-EGLL

Flight info

Callsign EWG6ML
Flight time 0h 58m
Altitude 32000
Route NVO3B/31R NVO Y868 NAVAK DCT DENUT L608 LOGAN
Aircraft A320/M-SDE3FGHIRWY/LB1

Departure

Time 2026-04-26 15:02
Airport Cologne Bonn Airport (EDDK)

Arrival

Time 2026-04-26 16:00
Airport London Heathrow Airport (EGLL)
Time Latitude Longitude Altitude Speed Heading
2026-04-26 14:35 50.87697 7.12382 235 ft 0 kts 288°
2026-04-26 14:49 50.87696 7.12384 232 ft 2 kts 288°
2026-04-26 14:49 50.87689 7.12422 234 ft 4 kts 289°
2026-04-26 14:50 50.87678 7.12461 235 ft 4 kts 305°
2026-04-26 14:50 50.87660 7.12488 233 ft 4 kts 347°
2026-04-26 14:50 50.87648 7.12489 234 ft 0 kts 18°
2026-04-26 14:54 50.87682 7.12508 234 ft 10 kts 18°
2026-04-26 14:54 50.87753 7.12563 232 ft 12 kts 51°
2026-04-26 14:55 50.87767 7.12678 232 ft 10 kts 92°
2026-04-26 14:55 50.87736 7.12767 232 ft 11 kts 144°
2026-04-26 14:55 50.87642 7.12883 232 ft 22 kts 141°
2026-04-26 14:55 50.87530 7.13044 232 ft 22 kts 140°
2026-04-26 14:56 50.87418 7.13205 232 ft 22 kts 133°
2026-04-26 14:56 50.87308 7.13361 232 ft 21 kts 137°
2026-04-26 14:56 50.87207 7.13506 237 ft 18 kts 137°
2026-04-26 14:56 50.87114 7.13645 239 ft 19 kts 140°
2026-04-26 14:57 50.87025 7.13777 243 ft 17 kts 138°
2026-04-26 14:57 50.86952 7.13890 247 ft 12 kts 139°
2026-04-26 14:57 50.86901 7.13960 252 ft 12 kts 139°
2026-04-26 14:57 50.86837 7.14049 255 ft 12 kts 139°
2026-04-26 14:58 50.86768 7.14135 255 ft 19 kts 147°
2026-04-26 14:58 50.86650 7.14262 261 ft 19 kts 141°
2026-04-26 14:58 50.86558 7.14394 262 ft 18 kts 137°
2026-04-26 14:58 50.86464 7.14532 268 ft 20 kts 137°
2026-04-26 14:59 50.86336 7.14718 276 ft 26 kts 137°
2026-04-26 14:59 50.86204 7.14906 283 ft 25 kts 138°
2026-04-26 14:59 50.86097 7.15059 287 ft 16 kts 135°
2026-04-26 14:59 50.86054 7.15145 293 ft 14 kts 118°
2026-04-26 15:00 50.86069 7.15309 296 ft 10 kts 51°
2026-04-26 15:00 50.86129 7.15358 291 ft 10 kts
2026-04-26 15:00 50.86205 7.15340 291 ft 13 kts 346°
2026-04-26 15:00 50.86304 7.15303 287 ft 10 kts 348°
2026-04-26 15:01 50.86352 7.15331 290 ft 6 kts 41°
2026-04-26 15:01 50.86380 7.15322 285 ft 5 kts 315°
2026-04-26 15:01 50.86415 7.15273 284 ft 14 kts 318°
2026-04-26 15:01 50.86671 7.14903 272 ft 88 kts 317°
2026-04-26 15:02 50.87287 7.14016 260 ft 147 kts 318°
2026-04-26 15:02 50.88094 7.12893 775 ft 162 kts 319°
2026-04-26 15:02 50.88962 7.11672 1429 ft 172 kts 319°
2026-04-26 15:02 50.89871 7.10356 1986 ft 183 kts 317°
2026-04-26 15:03 50.90811 7.08903 2538 ft 193 kts 315°
2026-04-26 15:03 50.91418 7.06994 3148 ft 203 kts 276°
2026-04-26 15:03 50.91138 7.04731 3533 ft 226 kts 253°
2026-04-26 15:03 50.90602 7.02195 3883 ft 255 kts 252°
2026-04-26 15:04 50.90000 6.99494 4776 ft 262 kts 252°
2026-04-26 15:04 50.89388 6.96756 5781 ft 265 kts 252°
2026-04-26 15:04 50.88773 6.93969 6743 ft 270 kts 253°
2026-04-26 15:04 50.88158 6.91137 7645 ft 274 kts 253°
2026-04-26 15:05 50.87539 6.88261 8587 ft 278 kts 254°
2026-04-26 15:05 50.87328 6.87278 8914 ft 279 kts 254°
2026-04-26 15:05 50.86287 6.82380 10445 ft 285 kts 254°
2026-04-26 15:05 50.85649 6.79387 11291 ft 288 kts 254°
2026-04-26 15:06 50.84992 6.76302 11755 ft 308 kts 254°
2026-04-26 15:06 50.84282 6.72965 12102 ft 329 kts 253°
2026-04-26 15:06 50.83535 6.69485 12781 ft 337 kts 253°
2026-04-26 15:06 50.82781 6.65954 13566 ft 340 kts 255°
2026-04-26 15:07 50.82324 6.58510 15006 ft 344 kts 272°
2026-04-26 15:07 50.82376 6.54761 15685 ft 347 kts 272°
2026-04-26 15:07 50.82429 6.50917 16394 ft 351 kts 272°
2026-04-26 15:08 50.82481 6.47042 17085 ft 354 kts 272°
2026-04-26 15:08 50.82530 6.43129 17785 ft 357 kts 272°
2026-04-26 15:08 50.82562 6.40519 18224 ft 360 kts 272°
2026-04-26 15:08 50.82609 6.36545 18872 ft 363 kts 272°
2026-04-26 15:09 50.82656 6.32534 19456 ft 366 kts 272°
2026-04-26 15:09 50.82700 6.28488 20044 ft 369 kts 272°
2026-04-26 15:09 50.82740 6.24412 20628 ft 372 kts 272°
2026-04-26 15:09 50.82791 6.18961 21383 ft 375 kts 272°
2026-04-26 15:10 50.82818 6.16161 21764 ft 377 kts 272°
2026-04-26 15:10 50.82844 6.13408 22132 ft 379 kts 272°
2026-04-26 15:10 50.82895 6.07797 22881 ft 383 kts 272°
2026-04-26 15:10 50.82933 6.03567 23449 ft 385 kts 272°
2026-04-26 15:11 50.82951 5.99372 23965 ft 388 kts 271°
2026-04-26 15:11 50.82909 5.95092 24392 ft 390 kts 272°
2026-04-26 15:11 50.83105 5.90810 24828 ft 390 kts 281°
2026-04-26 15:11 50.83735 5.86633 25260 ft 391 kts 287°
2026-04-26 15:12 50.84506 5.82495 25694 ft 393 kts 288°
2026-04-26 15:12 50.85300 5.78341 26132 ft 395 kts 288°
2026-04-26 15:12 50.86108 5.74155 26564 ft 397 kts 288°
2026-04-26 15:12 50.86918 5.69960 26987 ft 399 kts 288°
2026-04-26 15:13 50.87717 5.65795 27395 ft 402 kts 288°
2026-04-26 15:13 50.88525 5.61557 27828 ft 403 kts 288°
2026-04-26 15:13 50.89332 5.57286 28265 ft 405 kts 288°
2026-04-26 15:13 50.90137 5.53005 28673 ft 407 kts 288°
2026-04-26 15:14 50.90946 5.48695 29072 ft 409 kts 288°
2026-04-26 15:14 50.91760 5.44366 29471 ft 411 kts 288°
2026-04-26 15:14 50.92577 5.40016 29849 ft 413 kts 288°
2026-04-26 15:14 50.93395 5.35639 30218 ft 415 kts 288°
2026-04-26 15:15 50.94214 5.31235 30535 ft 417 kts 288°
2026-04-26 15:15 50.95033 5.26824 30849 ft 418 kts 288°
2026-04-26 15:15 50.95857 5.22385 31148 ft 420 kts 288°
2026-04-26 15:15 50.96679 5.17945 31522 ft 418 kts 288°
2026-04-26 15:16 50.97491 5.13531 32032 ft 415 kts 288°
2026-04-26 15:16 50.98300 5.09120 32249 ft 419 kts 288°
2026-04-26 15:16 50.99958 5.00082 32288 ft 434 kts 288°
2026-04-26 15:17 51.01409 4.92402 32287 ft 439 kts 290°
2026-04-26 15:17 51.03881 4.81837 32293 ft 439 kts 293°
2026-04-26 15:18 51.06146 4.72827 32293 ft 439 kts 292°
2026-04-26 15:18 51.08343 4.63758 32302 ft 439 kts 291°
2026-04-26 15:19 51.10473 4.54666 32298 ft 438 kts 291°
2026-04-26 15:19 51.12587 4.45570 32300 ft 438 kts 291°
2026-04-26 15:20 51.14701 4.36468 32290 ft 438 kts 291°
2026-04-26 15:20 51.16804 4.27434 32300 ft 438 kts 291°
2026-04-26 15:21 51.18915 4.18329 32286 ft 438 kts 291°
2026-04-26 15:21 51.21016 4.09184 32284 ft 438 kts 291°
2026-04-26 15:22 51.23109 4.00050 32284 ft 438 kts 291°
2026-04-26 15:22 51.25197 3.90901 32292 ft 439 kts 291°
2026-04-26 15:23 51.27279 3.81801 32289 ft 439 kts 291°
2026-04-26 15:23 51.29368 3.72623 32301 ft 439 kts 290°
2026-04-26 15:24 51.31434 3.63442 32305 ft 439 kts 290°
2026-04-26 15:24 51.33487 3.54266 32312 ft 438 kts 290°
2026-04-26 15:25 51.35188 3.46635 32311 ft 438 kts 290°
2026-04-26 15:25 51.37564 3.35944 32310 ft 438 kts 290°
2026-04-26 15:26 51.39595 3.26765 32306 ft 438 kts 289°
2026-04-26 15:26 51.41626 3.17563 32313 ft 437 kts 289°
2026-04-26 15:27 51.43647 3.08378 32302 ft 437 kts 289°
2026-04-26 15:27 51.45662 2.99167 32304 ft 437 kts 289°
2026-04-26 15:28 51.47655 2.90005 32311 ft 437 kts 289°
2026-04-26 15:28 51.49655 2.80785 32314 ft 437 kts 289°
2026-04-26 15:29 51.51649 2.71553 32307 ft 438 kts 289°
2026-04-26 15:30 51.55616 2.53046 32319 ft 438 kts 289°
2026-04-26 15:30 51.57573 2.43836 32313 ft 438 kts 289°
2026-04-26 15:31 51.60523 2.29901 32301 ft 439 kts 288°
2026-04-26 15:32 51.63131 2.17500 32312 ft 439 kts 288°
2026-04-26 15:32 51.65408 2.06617 31772 ft 435 kts 288°
2026-04-26 15:33 51.66356 2.02071 31004 ft 432 kts 288°
2026-04-26 15:33 51.67305 1.97498 30248 ft 429 kts 288°
2026-04-26 15:33 51.68245 1.92945 29423 ft 426 kts 287°
2026-04-26 15:33 51.69181 1.88408 28768 ft 427 kts 287°
2026-04-26 15:34 51.70118 1.83870 28159 ft 425 kts 287°
2026-04-26 15:34 51.71046 1.79358 27553 ft 423 kts 287°
2026-04-26 15:34 51.71968 1.74866 26961 ft 420 kts 287°
2026-04-26 15:34 51.72883 1.70400 26383 ft 417 kts 287°
2026-04-26 15:35 51.73776 1.66020 25818 ft 415 kts 287°
2026-04-26 15:35 51.74429 1.61507 25420 ft 412 kts 276°
2026-04-26 15:35 51.74475 1.56891 25298 ft 411 kts 265°
2026-04-26 15:35 51.74173 1.52295 25328 ft 413 kts 264°
2026-04-26 15:36 51.73879 1.47690 25329 ft 413 kts 264°
2026-04-26 15:36 51.73587 1.43072 25189 ft 414 kts 264°
2026-04-26 15:36 51.73296 1.38482 24736 ft 409 kts 264°
2026-04-26 15:36 51.73004 1.33930 24294 ft 407 kts 264°
2026-04-26 15:37 51.72706 1.29398 23848 ft 405 kts 263°
2026-04-26 15:37 51.72406 1.24903 23328 ft 402 kts 263°
2026-04-26 15:37 51.72109 1.20426 22815 ft 400 kts 263°
2026-04-26 15:37 51.71815 1.15983 22311 ft 397 kts 264°
2026-04-26 15:38 51.71521 1.11565 21822 ft 395 kts 263°
2026-04-26 15:38 51.71227 1.07175 21329 ft 393 kts 263°
2026-04-26 15:38 51.70933 1.02872 20856 ft 390 kts 263°
2026-04-26 15:38 51.70634 0.98529 20382 ft 388 kts 263°
2026-04-26 15:39 51.70335 0.94205 19917 ft 386 kts 263°
2026-04-26 15:39 51.70038 0.89923 19472 ft 383 kts 263°
2026-04-26 15:39 51.69741 0.85662 19019 ft 381 kts 262°
2026-04-26 15:39 51.69544 0.82853 18726 ft 380 kts 263°
2026-04-26 15:40 51.69145 0.77221 18055 ft 377 kts 262°
2026-04-26 15:40 51.68846 0.73043 17550 ft 374 kts 262°
2026-04-26 15:40 51.68551 0.68884 17051 ft 370 kts 263°
2026-04-26 15:40 51.68260 0.64783 16564 ft 367 kts 263°
2026-04-26 15:41 51.67966 0.60702 16075 ft 365 kts 263°
2026-04-26 15:41 51.67673 0.56642 15603 ft 363 kts 263°
2026-04-26 15:41 51.67385 0.52611 15134 ft 360 kts 263°
2026-04-26 15:41 51.67103 0.48669 14674 ft 357 kts 263°
2026-04-26 15:42 51.66812 0.44690 14225 ft 355 kts 263°
2026-04-26 15:42 51.66524 0.40760 13726 ft 351 kts 263°
2026-04-26 15:42 51.66242 0.36920 13205 ft 337 kts 263°
2026-04-26 15:42 51.65973 0.33254 12724 ft 321 kts 262°
2026-04-26 15:43 51.65714 0.29754 12224 ft 308 kts 262°
2026-04-26 15:43 51.65463 0.26438 11744 ft 297 kts 262°
2026-04-26 15:43 51.64975 0.20033 10806 ft 280 kts 263°
2026-04-26 15:44 51.64744 0.16975 10350 ft 272 kts 263°
2026-04-26 15:44 51.64455 0.11044 9357 ft 259 kts 266°
2026-04-26 15:44 51.64355 0.08179 8872 ft 254 kts 266°
2026-04-26 15:45 51.64160 0.02658 8294 ft 235 kts 266°
2026-04-26 15:45 51.64069 0.00062 8301 ft 232 kts 266°
2026-04-26 15:46 51.63891 -0.05137 8301 ft 233 kts 266°
2026-04-26 15:46 51.63809 -0.07733 8295 ft 232 kts 266°
2026-04-26 15:46 51.63724 -0.10342 8302 ft 233 kts 266°
2026-04-26 15:46 51.63667 -0.12068 8301 ft 233 kts 266°
2026-04-26 15:47 51.63548 -0.15527 8300 ft 234 kts 266°
2026-04-26 15:47 51.63379 -0.20696 7823 ft 230 kts 266°
2026-04-26 15:47 51.63294 -0.23280 7527 ft 231 kts 266°
2026-04-26 15:48 51.63211 -0.25862 7330 ft 229 kts 266°
2026-04-26 15:48 51.63130 -0.28429 7298 ft 230 kts 266°
2026-04-26 15:48 51.63045 -0.31015 7299 ft 231 kts 266°
2026-04-26 15:48 51.62958 -0.33607 7301 ft 232 kts 266°
2026-04-26 15:49 51.62870 -0.36193 7300 ft 231 kts 266°
2026-04-26 15:49 51.62785 -0.38750 7302 ft 232 kts 266°
2026-04-26 15:49 51.62693 -0.41344 7300 ft 232 kts 266°
2026-04-26 15:49 51.62604 -0.43936 7301 ft 231 kts 266°
2026-04-26 15:50 51.62513 -0.46531 7305 ft 232 kts 266°
2026-04-26 15:50 51.62427 -0.49118 7300 ft 232 kts 266°
2026-04-26 15:50 51.62338 -0.51702 7302 ft 232 kts 265°
2026-04-26 15:50 51.62250 -0.54293 7302 ft 231 kts 266°
2026-04-26 15:51 51.62166 -0.56877 7303 ft 231 kts 266°
2026-04-26 15:51 51.62084 -0.59458 7289 ft 230 kts 266°
2026-04-26 15:51 51.61997 -0.62022 7051 ft 229 kts 266°
2026-04-26 15:51 51.61907 -0.64593 6830 ft 230 kts 266°
2026-04-26 15:52 51.61820 -0.67143 6600 ft 231 kts 266°
2026-04-26 15:52 51.61729 -0.69716 6347 ft 230 kts 266°
2026-04-26 15:52 51.61635 -0.72287 6087 ft 230 kts 266°
2026-04-26 15:52 51.61572 -0.73990 5920 ft 229 kts 266°
2026-04-26 15:53 51.61450 -0.77408 5544 ft 229 kts 264°
2026-04-26 15:53 51.60975 -0.79847 5137 ft 233 kts 234°
2026-04-26 15:53 51.59754 -0.81515 4730 ft 234 kts 203°
2026-04-26 15:53 51.58223 -0.82470 4316 ft 236 kts 200°
2026-04-26 15:54 51.56717 -0.83439 4021 ft 227 kts 200°
2026-04-26 15:54 51.55309 -0.84371 4001 ft 214 kts 201°
2026-04-26 15:54 51.53913 -0.85090 4000 ft 209 kts 182°
2026-04-26 15:54 51.52482 -0.84758 4010 ft 209 kts 164°
2026-04-26 15:55 51.51109 -0.84089 4001 ft 209 kts 161°
2026-04-26 15:55 51.49749 -0.83289 4002 ft 208 kts 151°
2026-04-26 15:55 51.48607 -0.81880 4000 ft 208 kts 131°
2026-04-26 15:55 51.47852 -0.79927 3880 ft 206 kts 111°
2026-04-26 15:56 51.47617 -0.78449 3748 ft 207 kts 96°
2026-04-26 15:56 51.47593 -0.76118 3491 ft 210 kts 89°
2026-04-26 15:56 51.47615 -0.73760 3211 ft 211 kts 89°
2026-04-26 15:56 51.47632 -0.71429 2924 ft 206 kts 90°
2026-04-26 15:57 51.47646 -0.69162 2671 ft 199 kts 90°
2026-04-26 15:57 51.47658 -0.67038 2395 ft 180 kts 90°
2026-04-26 15:57 51.47664 -0.65126 2118 ft 167 kts 89°
2026-04-26 15:57 51.47674 -0.63900 1918 ft 164 kts 88°
2026-04-26 15:58 51.47727 -0.61498 1646 ft 159 kts 89°
2026-04-26 15:58 51.47718 -0.59790 1573 ft 143 kts 91°
2026-04-26 15:58 51.47735 -0.58220 1365 ft 137 kts 90°
2026-04-26 15:58 51.47727 -0.56742 1115 ft 133 kts 90°
2026-04-26 15:59 51.47732 -0.55263 903 ft 132 kts 89°
2026-04-26 15:59 51.47736 -0.53800 757 ft 132 kts 90°
2026-04-26 15:59 51.47742 -0.52325 578 ft 131 kts 90°
2026-04-26 15:59 51.47748 -0.50874 419 ft 130 kts 89°
2026-04-26 16:00 51.47755 -0.49420 247 ft 130 kts 89°
2026-04-26 16:00 51.47754 -0.47967 104 ft 129 kts 89°
2026-04-26 16:00 51.47759 -0.46685 90 ft 95 kts 89°
2026-04-26 16:00 51.47760 -0.45900 85 ft 45 kts 90°
2026-04-26 16:01 51.47759 -0.45587 87 ft 14 kts 92°
2026-04-26 16:01 51.47703 -0.45475 88 ft 14 kts 170°
2026-04-26 16:01 51.47657 -0.45468 86 ft 5 kts 178°
2026-04-26 16:01 51.47607 -0.45439 90 ft 13 kts 131°
2026-04-26 16:02 51.47600 -0.45244 87 ft 20 kts 92°
2026-04-26 16:02 51.47597 -0.45012 87 ft 22 kts 91°
2026-04-26 16:02 51.47601 -0.44769 87 ft 15 kts 90°
2026-04-26 16:02 51.47579 -0.44666 89 ft 16 kts 143°
2026-04-26 16:03 51.47429 -0.44564 88 ft 19 kts 175°
2026-04-26 16:03 51.47307 -0.44560 87 ft 12 kts 179°
2026-04-26 16:03 51.47225 -0.44559 87 ft 11 kts 180°
2026-04-26 16:03 51.47123 -0.44559 87 ft 17 kts 179°
2026-04-26 16:04 51.46998 -0.44558 87 ft 19 kts 180°
2026-04-26 16:04 51.46884 -0.44557 87 ft 11 kts 179°
2026-04-26 16:04 51.46833 -0.44558 87 ft 4 kts 190°
2026-04-26 16:04 51.46821 -0.44603 89 ft 5 kts 271°
2026-04-26 16:05 51.46820 -0.44652 88 ft 4 kts 268°
2026-04-26 16:05 51.46819 -0.44679 91 ft 0 kts 268°